Location: Caltech
(34.1382°N, 118.1253°W)
Time: 16:06:08
(UTC-07:00)

Iridium 68 - Visible Passes

Search period start: 04 May 2016 00:00
Search period end: 14 May 2016 00:00
Orbit: 776 x 779 km, 86.4° (Epoch: 04 May)

Date Brightness Start Highest point End Pass type
(mag) Time Alt. Az. Time Alt. Az. Time Alt. Az.
04 May 8.2 00:02:18 10° N 00:04:07 22° N 00:04:07 22° N visible
04 May 8.1 23:29:03 10° NNE 23:30:47 20° NNE 23:30:47 20° NNE visible
05 May 8.7 01:10:51 10° NW 01:11:15 11° NW 01:11:15 11° NW visible
05 May 8.3 22:56:18 10° NNE 22:57:27 14° NE 22:57:27 14° NE visible
06 May 8.4 00:36:20 10° NNW 00:37:56 19° NNW 00:37:56 19° NNW visible
07 May 8.0 00:02:26 10° N 00:04:36 25° NNW 00:04:36 25° NNW visible
07 May 7.8 23:28:56 10° N 23:31:18 27° NNE 23:31:18 27° NNE visible
08 May 7.9 22:55:51 10° NNE 22:57:59 21° NE 22:57:59 21° NE visible
09 May 8.4 00:36:55 10° NNW 00:38:28 17° NW 00:38:28 17° NW visible
09 May 8.2 22:23:26 10° NE 22:24:41 14° NE 22:24:41 14° NE visible
10 May 7.9 00:02:42 10° NNW 00:05:10 26° NNW 00:05:10 26° NNW visible
10 May 7.5 23:28:58 10° N 23:31:52 34° N 23:31:52 34° N visible
11 May 7.4 22:55:37 10° N 22:58:34 31° NNE 22:58:34 31° NNE visible
12 May 8.6 00:37:52 10° NW 00:39:03 13° WNW 00:39:03 13° WNW visible
12 May 7.7 22:22:44 10° NNE 22:25:17 21° NE 22:25:17 21° NE visible
13 May 8.0 00:03:08 10° NNW 00:05:46 24° NW 00:05:46 24° NW visible
13 May 8.2 21:50:55 10° NE 21:52:01 12° ENE 21:52:01 12° ENE visible
13 May 7.3 23:29:08 10° N 23:32:30 38° NNW 23:32:30 38° NNW visible
